• Join FlightAware (Why Join?)
  • Login
  • US Flag 
12:34PM EST


 

Airport Tracker/Info


-or-


 

Live Flight TrackerFlight Track Log ✈ N93XP ✈ 04-Mar-2014 ✈ KSAT - KFTW

Flight Track Log - Related Links

Times and Time Zones

All times are in EST time to prevent confusion due to time zone crossing. See the N93XP flight status page for this flight to view local times or setup timezone preferences in your user account.

Time Position Orientation Groundspeed Altitude Reporting Facility
EST Latitude Longitude Course Direction KTS MPH feet Rate Location/Type
09:03PM 29.6072 -98.3978 40° Northeast 224 258 5,000  Level Houston Center
09:03PM 29.6128 -98.3931 36° Northeast 255 293 5,000  Level Houston Center
09:04PM 29.6650 -98.3433 40° Northeast 278 320 5,000  Level Houston Center
09:04PM 29.6653 -98.3431 41° Northeast 264 304 5,000 1,219 Level Houston Center
09:05PM 29.7250 -98.2903 37° Northeast 252 290 6,300 1,902 Climbing Houston Center
09:06PM 29.7986 -98.3031 351° North 275 316 8,900 2,683 Climbing Houston Center
09:07PM 29.8728 -98.3253 345° North 275 316 11,800 2,732 Climbing Houston Center
09:08PM 29.9600 -98.3147 North 302 348 14,500 2,341 Climbing Houston Center
09:09PM 30.0486 -98.2950 11° North 325 374 16,600 2,066 Climbing Houston Center
09:10PM 30.1417 -98.2744 11° North 338 389 18,700 2,098 Climbing Houston Center
09:11PM 30.2444 -98.2506 11° North 347 399 20,900 1,122 Climbing Houston Center
09:12PM 30.3431 -98.2272 12° North 377 434 21,000 49 Climbing Houston Center
09:13PM 30.4586 -98.2014 11° North 410 472 21,000  Level Houston Center
09:14PM 30.5714 -98.1761 11° North 410 472 21,000  Level Houston Center
09:15PM 30.6839 -98.1492 12° North 410 472 21,000  Level Houston Center
09:16PM 30.7961 -98.1236 11° North 409 471 21,000  Level Houston Center
09:17PM 30.9081 -98.0975 11° North 408 470 21,000  Level Houston Center
09:18PM 31.0189 -98.0719 11° North 402 463 21,000  Level Houston Center
09:19PM 31.1300 -98.0464 11° North 402 463 21,000  Level Houston Center
09:20PM 31.2042 -98.0300 11° North 405 466 21,000  Level Fort Worth Center
09:21PM 31.3156 -98.0039 11° North 404 465 21,000  Level Fort Worth Center
09:22PM 31.4278 -97.9775 11° North 404 465 21,000  Level Fort Worth Center
09:23PM 31.5397 -97.9517 11° North 404 465 21,000  Level Fort Worth Center
09:24PM 31.6528 -97.9244 12° North 406 467 21,000  Level Fort Worth Center
09:25PM 31.7664 -97.8981 11° North 408 470 21,000 -1,065 Level Fort Worth Center
09:26PM 31.8758 -97.8717 12° North 403 464 18,800 -2,419 Descending Fort Worth Center
09:27PM 32.0006 -97.8439 11° North 394 453 16,000 -2,585 Descending Fort Worth Center
09:28PM 32.1044 -97.8183 12° North 380 437 13,500 -2,341 Descending Fort Worth Center
09:29PM 32.2028 -97.7936 12° North 320 368 11,200 -1,935 Descending Fort Worth Center
09:30PM 32.2839 -97.7753 11° North 294 338 9,500 -1,694 Descending Fort Worth Center
09:31PM 32.3700 -97.7533 12° North 294 338 7,700 -1,659 Descending Fort Worth Center
09:32PM 32.4375 -97.7136 26° Northeast 274 315 6,100 -878 Descending Fort Worth Center
09:33PM 32.5031 -97.6650 32° Northeast 277 319 5,900 -823 Descending Fort Worth Center
09:34PM 32.5686 -97.6169 32° Northeast 254 292 4,400 -1,073 Descending Fort Worth Center
09:35PM 32.6278 -97.5797 28° Northeast 240 276 3,700 -683 Descending Fort Worth Center
09:36PM 32.6875 -97.5453 26° Northeast 240 276 3,000 -339 Descending Fort Worth Center
09:37PM 32.7411 -97.5114 28° Northeast 204 235 3,000  Level Fort Worth Center
09:38PM 32.7817 -97.4786 34° Northeast 181 208 3,000 -146 Level Fort Worth Center
09:39PM 32.8233 -97.4483 31° Northeast 179 206 2,700 -488 Descending Fort Worth Center
09:40PM 32.8619 -97.4133 37° Northeast 161 185 2,000 -585 Descending Fort Worth Center
09:41PM 32.8686 -97.3747 78° East 124 143 1,500 -484 Descending Fort Worth Center
09:42PM 32.8408 -97.3653 164° South 109 125 1,000 -390 Descending Fort Worth Center
09:43PM 32.8189 -97.3617 172° South 72 83 700 -295 Descending Fort Worth Center